Location: Gellin
(53.4498°N, 14.3207°E)
Time: 22:40:02
(UTC+00:00)

Cosmos 2278 Rocket - Pass Details

Date: 03 March 2021
Orbit: 841 x 845 km, 71.0° (Epoch: 12 April)

Event Time Altitude Azimuth Distance (km) Brightness Sun altitude
Rises 18:38:50 0° 328° (NNW) 3,418 6.1 -17.7°
Reaches altitude 10° 18:41:23 10° 333° (NNW) 2,479 5.2 -18.1°
Maximum altitude 18:46:55 50° 49° (NE) 1,066 2.5 -18.9°
Enters shadow 18:48:55 35° 102° (ESE) 1,338 2.7 -19.1°
